Location: Sternwarte_Laufen
(47.9344°N, 12.9346°E)
Time: 01:53:06
(UTC+02:00)

Envisat - Pass Details

Date: 17 May 2026
Orbit: 761 x 763 km, 98.4° (Epoch: 7 June)

Event Time Altitude Azimuth Distance (km) Brightness Sun altitude
Rises 04:35:22 0° 8° (N) 3,236 7.1 -7.9°
Reaches altitude 10° 04:37:46 10° 2° (N) 2,306 6.1 -7.6°
Maximum altitude 04:42:31 42° 293° (WNW) 1,075 3.6 -7.0°
Drops below altitude 10° 04:47:16 10° 223° (SW) 2,290 4.8 -6.4°
Enters shadow 04:47:55 - 221° (SW) 2,537 5.0 -6.3°
